Wind_Speed
28 28 27 27 27 26 26 25 24 22 21 19 18 17 16 15 15 14 14 13 13 14 15 15 15 16 16 16 16 17 17 17 18 18 19 19 19 18 18 17 17 17 17 17
30 29 29 29 28 27 27 26 25 24 22 21 20 19 17 15 15 15 14 14 15 15 16 16 16 16 17 17 18 18 18 19 20 20 21 20 21 20 19 19 18 18 18 18
32 31 32 32 30 29 29 27 26 25 23 21 20 19 19 17 17 16 15 15 16 17 17 17 17 17 18 19 19 20 20 21 21 22 22 22 23 21 20 20 19 19 19 19
32 31 32 30 30 30 30 29 28 27 25 23 21 20 19 19 18 17 17 18 19 19 19 19 19 19 19 20 20 21 21 21 22 23 23 23 23 22 21 21 21 20 21 21
34 33 32 30 30 31 31 31 30 29 27 26 23 23 22 21 21 20 20 21 20 21 21 20 20 20 20 20 21 22 21 22 23 24 24 24 24 23 22 22 21 21 22 22
35 35 34 32 31 32 32 32 30 30 28 27 25 25 23 23 23 22 22 22 22 22 22 21 21 21 21 21 22 22 23 24 24 25 25 25 25 25 24 23 22 22 23 23
35 35 35 33 32 32 33 32 30 31 30 28 27 26 25 24 24 23 23 24 24 24 23 22 22 22 22 22 23 24 25 25 25 26 26 26 26 25 24 24 23 23 23 23
36 35 35 33 33 32 33 32 32 30 29 28 28 27 26 25 24 24 25 25 25 24 24 24 24 23 23 24 25 26 26 26 26 26 26 26 26 25 25 25 24 24 24 24
37 36 35 33 33 32 32 31 31 30 29 30 30 28 28 28 27 25 25 25 26 26 27 27 26 25 25 25 26 27 27 27 26 26 26 26 26 25 25 24 24 24 25 25
38 37 36 34 33 32 31 31 31 31 31 31 31 31 30 30 29 28 27 27 28 28 28 27 26 25 26 26 27 27 26 26 26 26 27 26 25 25 25 25 25 25 26 26
38 37 36 35 34 33 32 32 33 33 33 32 32 32 31 31 30 29 29 28 28 28 28 29 27 26 26 27 28 27 27 26 27 28 28 27 26 25 25 26 26 26 26 26
38 37 36 34 34 33 31 31 32 33 33 32 32 32 31 30 30 29 29 29 29 28 29 29 29 27 26 27 28 28 28 28 28 29 28 28 27 27 26 27 27 28 28 27
38 38 36 34 33 33 31 30 30 31 32 33 32 31 31 31 30 30 30 29 28 28 30 30 29 29 28 29 30 30 29 29 28 29 29 29 28 28 27 27 28 29 29 29
38 38 36 34 33 32 32 31 30 31 31 31 31 30 30 31 30 29 29 29 29 30 30 29 29 29 30 30 30 30 30 29 29 29 29 29 28 28 28 29 29 29 30 30
36 37 36 35 33 32 32 32 32 31 30 30 30 29 29 29 28 28 29 29 30 30 29 29 29 29 29 29 29 30 30 30 29 29 29 29 28 29 29 30 30 30 30 29
35 35 35 34 32 31 31 31 31 31 31 30 28 29 29 29 29 28 29 29 29 29 29 30 30 30 29 30 30 29 29 29 29 29 29 29 29 29 29 30 30 29 29 29
33 33 33 32 32 31 30 30 31 30 30 29 29 29 30 30 30 30 29 29 28 28 29 30 31 29 29 29 29 29 29 29 29 29 30 30 29 29 29 29 29 29 29 29
30 30 31 31 31 31 30 30 31 30 30 29 30 30 31 31 31 31 30 29 29 29 29 29 29 29 29 30 30 30 29 29 29 29 30 30 30 30 30 30 30 30 29 29
28 27 28 29 29 30 31 31 30 29 29 29 30 31 31 31 32 31 31 30 29 28 27 28 28 27 28 28 28 28 28 28 29 30 30 30 30 30 30 30 30 30 29 29
26 26 27 26 26 27 28 29 29 30 29 29 28 28 30 31 30 29 29 29 28 28 28 28 27 27 27 27 27 27 28 28 29 30 30 30 30 29 29 29 29 29 29 29
24 24 24 24 24 25 26 27 29 28 26 26 26 27 28 28 27 27 28 28 27 26 27 27 27 26 26 27 26 27 27 28 29 29 30 30 29 29 29 29 29 29 29 29
23 23 24 23 23 24 25 25 24 24 24 24 25 25 25 25 25 26 26 26 26 26 26 27 26 26 26 26 26 27 28 29 29 29 29 29 29 29 29 29 29 29 30 30
22 22 23 23 22 22 23 24 24 23 24 24 24 23 23 23 24 25 24 24 25 26 27 27 26 26 26 26 26 27 28 28 29 29 29 29 29 29 29 29 29 30 30 30
19 20 20 20 20 20 21 23 24 23 22 23 23 23 23 24 24 24 24 25 25 26 26 26 26 26 26 26 27 27 28 28 28 28 28 29 29 29 29 29 29 30 30 30
16 17 18 19 19 19 19 20 20 20 21 21 21 21 21 22 22 22 22 23 23 23 24 25 25 26 26 27 27 28 28 27 27 28 28 29 28 28 29 29 29 29 29 29
16 16 17 17 17 18 18 19 18 19 19 20 20 20 20 20 21 22 22 23 23 24 24 25 25 26 26 27 27 27 27 27 27 27 28 28 28 28 28 27 28 28 27 28
16 16 16 16 16 17 18 18 19 19 20 20 20 21 21 21 21 22 23 24 24 24 24 24 25 26 26 27 27 27 27 27 27 27 27 27 27 27 27 27 27 27 27 28
Wind_Direction
235 233 234 236 239 242 246 251 255 257 260 266 271 277 281 281 282 286 297 304 310 315 320 322 322 324 327 327 329 330 331 332 332 330 331 329 328 323 320 317 314 312 310 308
236 235 234 236 239 242 246 250 252 254 258 261 265 271 276 280 280 283 290 295 299 306 312 315 316 318 320 323 323 325 326 326 327 328 328 325 322 320 317 314 311 310 309 307
238 237 238 239 239 241 245 249 250 253 257 261 263 268 272 274 275 278 282 286 291 297 304 307 310 311 314 317 320 322 323 324 324 325 324 324 323 318 314 312 311 309 309 307
240 239 240 241 240 242 245 248 249 252 256 260 262 264 268 272 276 276 277 283 287 291 299 302 303 306 309 312 316 318 318 321 322 323 321 321 321 318 312 309 308 308 307 305
239 240 242 240 241 244 246 248 250 253 256 258 259 263 266 269 274 275 275 280 284 287 291 295 298 302 306 309 311 314 315 318 320 320 320 319 319 317 314 308 306 306 305 304
241 242 243 244 244 246 248 250 250 253 254 255 258 262 266 268 270 273 274 279 281 284 288 291 296 299 302 306 310 313 314 314 315 316 317 317 317 316 314 309 305 305 306 304
242 244 245 246 247 248 249 251 251 253 254 257 258 261 264 267 271 276 277 278 279 283 289 293 294 295 299 303 306 308 309 310 312 313 313 313 313 312 312 310 307 305 306 305
241 244 246 248 249 249 249 249 250 252 253 255 257 259 261 265 271 275 276 276 277 283 289 291 292 293 296 298 302 304 306 307 309 311 312 312 311 309 308 307 306 306 306 306
242 245 248 249 249 249 248 248 248 250 251 253 255 257 258 261 267 271 274 275 278 282 286 289 291 291 293 295 298 300 302 305 307 310 311 312 310 309 307 307 306 305 305 305
243 245 248 250 250 249 248 247 246 247 248 251 253 258 261 263 266 267 271 275 278 282 284 287 288 290 293 294 296 298 300 302 305 308 310 310 309 308 306 306 305 304 304 304
244 246 249 251 251 251 249 247 246 245 247 249 253 258 260 262 264 267 270 273 278 282 286 289 290 289 291 294 295 295 298 300 303 306 308 308 307 307 306 304 304 304 303 303
244 246 248 249 250 252 251 247 246 246 247 248 251 256 259 260 262 266 270 274 277 281 284 287 290 292 292 295 295 297 299 300 301 303 304 305 304 304 304 304 303 303 302 302
243 244 246 246 248 250 251 250 247 245 246 249 251 254 258 260 261 266 271 272 275 279 282 285 286 290 292 294 294 296 299 300 300 301 301 302 302 302 302 302 303 303 303 302
243 243 244 244 246 248 248 249 248 246 247 247 250 254 257 258 261 265 269 273 276 279 281 283 284 287 289 291 292 295 298 299 299 300 301 300 300 300 301 302 302 303 303 303
243 243 243 245 246 246 246 247 246 246 248 249 250 252 256 258 262 265 268 272 275 277 280 282 284 285 287 288 290 292 294 297 298 300 301 301 300 300 301 302 302 304 304 303
243 243 243 242 242 244 246 246 245 248 249 249 250 252 255 259 262 264 267 269 271 274 278 281 284 285 286 288 289 291 293 295 297 299 300 300 300 300 301 302 302 303 303 302
243 244 241 240 242 244 245 246 248 248 247 247 250 252 256 260 263 265 265 266 269 273 277 279 282 284 285 288 289 292 293 295 297 298 299 299 300 300 301 301 301 302 302 302
244 242 239 239 241 243 244 246 247 247 248 249 252 256 259 260 263 266 266 266 268 271 275 278 281 282 285 286 287 290 292 294 295 297 298 299 299 299 299 300 300 300 301 301
238 239 240 240 240 241 244 247 247 248 250 252 256 258 261 261 262 264 265 265 267 271 274 277 280 282 285 287 288 289 291 292 294 295 297 298 298 298 298 299 299 300 300 300
237 239 240 240 241 244 244 246 248 251 254 252 254 256 259 260 259 261 263 265 268 272 276 278 279 281 284 286 288 289 290 292 294 296 297 297 298 298 298 297 297 299 301 301
237 240 241 242 244 246 248 249 250 255 256 253 252 255 257 257 258 261 264 267 268 271 275 278 280 282 284 286 288 289 290 293 295 296 296 297 297 296 296 296 297 299 301 302
242 243 244 245 245 247 249 249 251 254 254 250 250 255 256 255 258 260 263 266 267 271 275 277 279 282 285 286 287 288 291 293 294 296 296 296 296 296 296 297 298 300 300 300
243 244 244 246 249 250 250 250 251 254 255 251 254 256 256 258 261 262 265 269 271 273 276 277 279 282 284 286 287 288 290 292 294 294 295 295 296 297 298 299 300 301 301 302
242 243 244 245 247 248 250 252 255 256 257 254 253 255 258 261 263 266 268 270 273 275 277 278 280 282 284 286 287 288 291 293 293 293 294 295 296 297 298 299 300 301 302 303
244 244 244 244 244 246 249 252 252 252 255 255 256 259 260 263 267 269 272 274 274 275 278 280 281 282 284 286 288 290 291 292 292 293 295 296 296 297 298 299 300 301 303 305
239 242 246 249 248 248 249 251 252 253 256 258 260 263 266 270 271 270 271 274 275 278 280 282 283 284 285 286 288 289 290 292 293 294 295 296 297 299 300 300 301 303 305 307
240 242 245 252 254 254 255 257 257 258 261 263 265 266 269 270 272 273 275 276 278 280 280 281 282 283 285 287 288 289 291 292 293 294 295 296 297 299 300 301 302 304 305 306
Height
5880 5883 5886 5888 5891 5893 5895 5897 5899 5901 5903 5905 5906 5907 5907 5907 5906 5906 5905 5904 5903 5901 5899 5897 5896 5894 5892 5890 5888 5885 5883 5880 5878 5876 5873 5871 5868 5866 5864 5862 5860 5858 5856 5853
5873 5877 5880 5883 5885 5888 5890 5892 5894 5896 5899 5900 5901 5902 5903 5903 5903 5902 5902 5901 5900 5898 5896 5894 5892 5891 5889 5887 5885 5883 5880 5878 5875 5873 5870 5867 5865 5862 5860 5858 5856 5854 5852 5850
5867 5870 5873 5876 5880 5882 5885 5887 5889 5891 5894 5895 5896 5898 5899 5899 5899 5898 5898 5897 5896 5895 5893 5891 5889 5887 5885 5883 5881 5879 5877 5874 5871 5869 5866 5864 5861 5858 5856 5854 5852 5850 5848 5845
5860 5864 5867 5873 5874 5877 5879 5881 5883 5886 5888 5890 5892 5893 5894 5894 5894 5894 5894 5893 5892 5890 5889 5887 5885 5883 5881 5879 5877 5875 5873 5870 5868 5865 5862 5859 5856 5854 5851 5849 5847 5845 5843 5841
5853 5856 5860 5865 5868 5870 5872 5874 5877 5880 5882 5884 5885 5887 5888 5889 5889 5889 5889 5888 5887 5886 5884 5883 5881 5879 5877 5875 5873 5871 5868 5866 5863 5860 5857 5855 5852 5849 5846 5844 5842 5840 5838 5836
5846 5849 5852 5859 5861 5862 5866 5867 5871 5873 5876 5878 5879 5881 5883 5883 5883 5883 5883 5882 5881 5880 5879 5877 5876 5874 5872 5870 5868 5866 5864 5861 5859 5856 5853 5850 5847 5843 5841 5838 5836 5834 5832 5830
5838 5841 5845 5850 5852 5855 5859 5862 5865 5866 5869 5870 5872 5875 5877 5877 5877 5877 5876 5876 5875 5874 5873 5872 5870 5869 5867 5865 5864 5862 5859 5856 5854 5851 5847 5844 5841 5838 5836 5833 5831 5829 5827 5824
5831 5834 5840 5842 5845 5848 5851 5854 5856 5858 5861 5863 5865 5867 5869 5870 5870 5871 5870 5869 5869 5868 5867 5866 5864 5863 5861 5860 5858 5856 5854 5851 5848 5845 5841 5838 5835 5832 5830 5827 5825 5823 5821 5818
5824 5829 5831 5834 5836 5839 5842 5845 5848 5850 5853 5856 5858 5859 5861 5862 5863 5863 5863 5863 5862 5862 5861 5859 5858 5856 5855 5854 5852 5850 5847 5845 5842 5839 5836 5832 5829 5827 5824 5821 5819 5817 5815 5812
5815 5819 5822 5825 5828 5831 5834 5837 5840 5842 5845 5847 5849 5852 5853 5854 5854 5855 5856 5856 5856 5855 5853 5852 5851 5850 5848 5847 5845 5843 5841 5838 5836 5833 5830 5826 5823 5821 5818 5815 5813 5811 5808 5806
5806 5810 5814 5817 5820 5823 5826 5828 5831 5834 5836 5839 5841 5843 5845 5846 5847 5848 5848 5849 5848 5848 5847 5846 5844 5843 5842 5840 5838 5836 5834 5832 5829 5827 5824 5820 5817 5815 5812 5809 5807 5804 5801 5799
5798 5802 5805 5808 5811 5814 5817 5819 5822 5825 5828 5830 5832 5835 5836 5838 5839 5839 5840 5841 5841 5840 5840 5839 5837 5836 5835 5833 5831 5829 5827 5824 5822 5820 5817 5814 5811 5808 5805 5803 5800 5797 5795 5792
5788 5792 5796 5799 5802 5805 5808 5811 5814 5816 5820 5822 5824 5826 5828 5829 5830 5831 5832 5832 5832 5832 5832 5831 5830 5829 5827 5826 5824 5822 5819 5817 5814 5812 5809 5807 5804 5801 5799 5796 5793 5790 5787 5785
5778 5782 5787 5791 5794 5796 5800 5803 5805 5808 5811 5813 5816 5818 5820 5821 5822 5823 5824 5824 5824 5824 5823 5822 5821 5821 5820 5818 5816 5814 5812 5809 5807 5804 5802 5799 5797 5794 5791 5789 5786 5783 5780 5777
5769 5773 5778 5781 5785 5788 5791 5794 5797 5799 5802 5804 5806 5809 5811 5813 5814 5814 5815 5815 5816 5815 5815 5814 5814 5813 5811 5810 5808 5806 5804 5802 5799 5797 5794 5792 5789 5787 5784 5781 5778 5775 5772 5769
5760 5764 5768 5772 5777 5780 5783 5786 5789 5791 5794 5797 5798 5801 5803 5804 5805 5806 5806 5806 5807 5807 5807 5806 5805 5804 5803 5802 5800 5798 5796 5794 5792 5790 5787 5785 5782 5779 5776 5774 5771 5768 5765 5762
5753 5756 5760 5764 5768 5772 5775 5778 5781 5783 5786 5788 5790 5792 5794 5795 5796 5796 5796 5797 5798 5798 5798 5797 5797 5796 5795 5794 5792 5790 5788 5786 5784 5782 5779 5777 5774 5771 5769 5766 5763 5760 5757 5754
5747 5750 5753 5757 5760 5764 5767 5770 5772 5774 5777 5779 5781 5783 5784 5786 5787 5787 5788 5788 5789 5789 5789 5789 5788 5788 5787 5785 5784 5782 5780 5778 5776 5774 5772 5769 5766 5764 5761 5758 5755 5752 5749 5747
5741 5744 5746 5749 5753 5756 5759 5762 5764 5766 5768 5770 5772 5773 5775 5777 5778 5778 5779 5780 5781 5781 5781 5781 5780 5779 5778 5777 5776 5774 5772 5770 5768 5766 5763 5761 5758 5755 5753 5750 5747 5744 5742 5739
5736 5738 5741 5743 5745 5748 5751 5754 5756 5758 5759 5760 5762 5764 5766 5768 5769 5769 5771 5772 5772 5773 5773 5773 5772 5771 5770 5769 5768 5766 5764 5762 5760 5758 5755 5753 5750 5747 5745 5742 5739 5737 5734 5731
5731 5734 5736 5738 5740 5742 5744 5747 5749 5750 5750 5752 5754 5756 5758 5759 5761 5762 5763 5764 5765 5765 5765 5765 5764 5763 5762 5761 5760 5758 5756 5754 5752 5750 5747 5745 5742 5739 5736 5734 5731 5728 5726 5722
5727 5729 5731 5733 5735 5737 5739 5741 5743 5744 5744 5745 5746 5748 5750 5752 5753 5754 5755 5756 5757 5757 5757 5756 5756 5755 5754 5753 5752 5750 5749 5747 5744 5742 5739 5736 5734 5731 5728 5726 5723 5720 5717 5714
5722 5724 5726 5728 5730 5731 5733 5735 5736 5738 5739 5740 5741 5742 5743 5745 5746 5747 5748 5748 5749 5749 5749 5748 5748 5747 5746 5745 5744 5742 5741 5739 5736 5734 5731 5728 5726 5723 5720 5718 5715 5712 5709 5706
5717 5719 5721 5723 5725 5726 5728 5729 5731 5732 5733 5734 5736 5736 5737 5738 5739 5740 5740 5741 5741 5741 5741 5741 5740 5739 5738 5737 5736 5734 5732 5730 5728 5725 5723 5720 5718 5715 5713 5710 5707 5704 5701 5698
5713 5715 5716 5718 5720 5721 5723 5724 5725 5727 5728 5729 5730 5731 5731 5732 5733 5733 5733 5733 5734 5734 5733 5733 5732 5731 5730 5729 5728 5726 5724 5722 5720 5717 5715 5712 5710 5707 5704 5702 5699 5696 5693 5690
5709 5710 5712 5713 5715 5716 5718 5719 5720 5721 5723 5724 5724 5725 5725 5725 5726 5726 5726 5727 5727 5726 5726 5725 5724 5723 5722 5721 5719 5718 5716 5714 5711 5709 5707 5704 5702 5699 5697 5694 5691 5688 5685 5682
5705 5707 5708 5709 5710 5712 5713 5714 5715 5716 5717 5718 5718 5719 5719 5719 5720 5720 5720 5719 5719 5718 5718 5717 5716 5715 5714 5713 5711 5710 5708 5705 5703 5701 5699 5696 5694 5692 5689 5686 5683 5680 5677 5674